This is the latest recevied weather packets stored in our database for station/object OE3MHU-13. If no packets are shown the sender has not sent any weather packets the latest 10 day(s).
| Time | Temp. | Humidity | Pressure | Rain* | Wind** | Luminosity | Snow |
|---|---|---|---|---|---|---|---|
| 1777476123 | 17.78° C | 34% | 1024.2 hPa | 0 mm | - | - | - |
| 1777475822 | 17.78° C | 32% | 1024.1 hPa | 0 mm | - | - | - |
| 1777475520 | 17.78° C | 30% | 1024.1 hPa | 0 mm | - | - | - |
| 1777475221 | 18.33° C | 30% | 1024.1 hPa | 0 mm | - | - | - |
| 1777474920 | 18.33° C | 31% | 1024.1 hPa | 0 mm | - | - | - |
| 1777474618 | 18.33° C | 30% | 1024.1 hPa | 0 mm | - | - | - |
| 1777474318 | 18.33° C | 29% | 1024.1 hPa | 0 mm | - | - | - |
| 1777474018 | 18.33° C | 29% | 1023.9 hPa | 0 mm | - | - | - |
| 1777473715 | 18.89° C | 29% | 1024.1 hPa | 0 mm | - | - | - |
| 1777473413 | 18.89° C | 29% | 1024.2 hPa | 0 mm | - | - | - |
| 1777473114 | 18.89° C | 29% | 1024.2 hPa | 0 mm | - | - | - |
| 1777472813 | 18.89° C | 27% | 1024.2 hPa | 0 mm | - | - | - |
| 1777472513 | 19.44° C | 29% | 1024.2 hPa | 0 mm | - | - | - |
| 1777472214 | 18.89° C | 29% | 1024.3 hPa | 0 mm | - | - | - |
| 1777471912 | 18.33° C | 29% | 1024.4 hPa | 0 mm | - | - | - |
| 1777471612 | 18.33° C | 29% | 1024.4 hPa | 0 mm | - | - | - |
| 1777471429 | 18.33° C | 30% | 1024.4 hPa | 0 mm | - | - | - |
| 1777471422 | 18.89° C | 29% | 1024.4 hPa | 0 mm | - | - | - |
| 1777470706 | 18.33° C | 29% | 1024.5 hPa | 0 mm | - | - | - |
| 1777470400 | 18.33° C | 29% | 1024.6 hPa | 0 mm | - | - | - |
| 1777470094 | 18.89° C | 30% | 1024.5 hPa | 0 mm | - | - | - |
| 1777469788 | 18.33° C | 28% | 1024.5 hPa | 0 mm | - | - | - |
| 1777469482 | 18.33° C | 28% | 1024.5 hPa | 0 mm | - | - | - |
| 1777469176 | 18.33° C | 29% | 1024.4 hPa | 0 mm | - | - | - |
| 1777468870 | 18.33° C | 29% | 1024.7 hPa | 0 mm | - | - | - |
* Rain latest hour (hover to see other rain measurements)
** Current wind speed in m/s (hover to see current wind gust speed)